SCP
0 0 0 0 0 0 0 0 0 0 0 0 0 0 0 0 0 0 0 0 0 0 0 0 0 0 0 0 0 0 0 0 0 0 0 0 0 0 0 0 0 0 0
0 0 0 0 0 0 0 0 0 0 0 0 0 0 0 0 0 0 0 0 0 0 0 0 0 0 0 0 0 0 0 0 0 0 0 0 0 0 0 0 0 0 0
0 0 0 0 0 0 0 0 0 0 0 0 0 0 0 0 0 0 0 0 0 0 0 0 0 0 0 0 0 0 0 0 0 0 0 0 0 0 0 0 0 0 0
0 0 0 0 0 0 0 0 0 0 0 0 0 0 0 0 0 0 0 0 0 0 0 0 0 0 0 0 0 0 0 0 0 0 0 0 0 0 0 0 0 0 0
0 0 0 0 0 0 0 0 0 -0 0 0 0 0 0 0 0 0 0 0 0 0 0 0 0 0 0 0 0 0 0 0 0 0 0 0 0 0 0 0 0 0 0
0 0 0 0 0 0 0 -0 -0 -0 -0 0 0 0 0 0 0 0 0 0 0 0 0 0 0 0 0 0 0 0 0 0 0 0 0 0 0 0 0 0 0 0 0
0 0 0 0 0 0 -0 -0 -0 -0 -0 0 0 0 0 0 0 0 0 0 0 0 0 0 0 0 0 0 0 0 0 0 0 0 0 0 0 0 0 0 0 0 0
0 0 0 0 0 -0 -0 -0 -0 -0 -0 0 0 0 0 0 0 0 0 0 0 0 0 0 0 0 0 0 0 0 0 0 0 0 0 0 0 0 0 0 0 0 0
0 0 0 0 0 -0 -0 -0 -0 -0 -0 0 0 0 0 0 0 0 0 0 0 0 0 0 0 0 0 0 0 0 0 0 0 0 0 0 0 0 0 0 0 0 0
0 0 0 0 0 0 -0 -0 -0 -0 0 0 0 0 0 0 0 0 0 0 0 0 0 0 0 0 0 0 0 0 0 0 0 0 0 0 0 0 0 0 0 0 0
0 0 0 0 0 0 -0 -0 0 0 0 0 0 0 0 0 0 0 0 0 0 0 0 0 0 0 0 0 0 0 0 0 0 0 0 0 0 0 0 0 0 0 0
0 0 0 0 0 0 -0 0 0 0 0 0 0 0 0 0 0 0 0 0 0 0 0 0 0 0 0 0 0 0 0 0 0 0 0 0 0 0 0 0 0 0 0
0 0 0 0 0 0 0 0 0 0 0 0 0 0 0 0 0 0 0 0 0 0 0 0 0 0 0 0 0 0 0 0 0 0 0 0 0 0 0 0 0 0 0
0 0 0 0 0 0 0 0 0 0 0 0 0 0 0 0 0 0 0 0 0 0 0 0 0 0 0 0 0 0 0 0 0 0 0 0 0 0 0 0 0 0 0
0 0 0 0 0 0 0 0 0 0 0 0 0 0 0 0 0 0 0 0 0 0 0 0 0 0 0 0 0 0 0 0 0 0 0 0 0 0 0 0 0 0 0
0 0 0 0 0 0 0 0 0 0 0 0 0 0 0 0 0 0 0 0 0 0 0 0 0 0 0 0 0 0 0 0 0 0 0 0 0 0 0 0 0 0 0
0 0 0 0 0 0 0 0 0 0 0 0 0 0 0 0 0 0 0 0 0 0 0 0 0 0 0 0 0 0 0 0 0 0 0 0 0 0 0 0 0 0 0
0 0 0 0 0 0 0 0 0 0 0 0 0 0 0 0 0 0 0 0 0 0 0 0 0 0 0 0 0 0 0 0 0 0 0 0 0 0 0 0 0 0 0
0 0 0 0 0 0 0 0 0 0 0 0 0 0 0 0 0 0 0 0 0 0 0 0 0 0 0 0 0 0 0 0 0 0 0 0 0 0 0 0 0 0 0
0 0 0 0 0 0 0 0 0 0 0 0 0 0 0 0 0 0 0 0 0 0 0 0 0 -0 -0 0 0 0 0 0 0 0 0 0 0 0 0 0 0 0 0
0 0 0 0 0 0 0 0 0 0 0 0 0 0 0 0 0 0 0 0 0 0 0 0 -0 -0 -0 -0 0 0 0 0 0 0 0 0 0 0 0 0 0 0 0
0 0 0 0 0 0 0 0 0 0 0 0 0 0 0 0 0 0 0 0 0 0 0 0 -0 -0 -0 -0 0 0 0 0 0 0 0 0 0 0 0 0 0 0 0
0 0 0 0 0 0 0 0 0 0 0 0 0 0 0 0 0 0 0 0 0 0 0 -0 -0 -0 -0 -0 0 0 0 0 0 0 0 0 0 0 0 0 0 0 0
0 0 0 0 0 0 0 0 0 0 0 0 0 0 0 0 0 0 0 0 0 0 0 -0 -0 -0 -0 0 0 0 0 0 0 0 0 0 0 0 0 0 0 0 0
0 0 0 0 0 0 0 0 0 0 0 0 0 0 0 0 0 0 0 0 0 0 0 0 -0 -0 0 0 0 0 0 0 0 0 0 0 0 0 0 0 0 0 0
0 0 0 0 0 0 0 0 0 0 0 0 0 0 0 0 0 0 0 0 0 0 0 0 0 0 0 0 0 0 0 0 0 0 0 0 0 0 0 0 0 0 0
Wind_Speed
4 2 2 1 1 1 1 1 2 1 1 1 1 1 1 1 1 1 1 1 1 1 1 1 1 1 1 1 0 0 1 0 0 1 1 2 1 1 1 1 1 1 1
2 2 2 1 2 3 2 2 2 1 2 1 1 1 1 1 1 1 1 1 1 0 1 1 1 1 1 1 1 1 1 0 1 1 1 1 2 2 1 1 1 2 1
4 3 1 2 2 2 2 2 2 2 2 1 1 1 2 2 1 1 1 2 1 0 0 0 1 1 1 1 1 2 2 1 0 1 2 2 2 2 2 1 1 1 1
2 2 1 1 2 2 2 1 2 2 2 2 2 2 2 1 1 0 0 1 1 0 0 0 1 1 1 1 1 1 1 2 1 1 0 1 1 1 2 2 1 2 2
2 2 2 1 1 1 1 1 2 2 2 2 3 2 2 1 1 1 1 1 0 1 1 1 1 1 1 2 1 1 1 2 2 2 1 1 0 1 1 2 2 2 2
1 0 1 1 2 2 1 1 2 1 1 2 2 2 3 2 1 1 1 1 1 1 1 1 1 1 1 2 2 2 2 2 2 2 2 2 2 2 2 2 2 3 2
1 0 1 1 1 1 1 1 1 1 1 1 1 2 2 3 3 3 2 2 1 1 2 2 2 2 2 2 1 2 2 2 3 3 3 2 2 1 2 2 2 3 2
1 0 1 1 0 0 1 1 1 1 1 0 1 1 2 2 2 2 2 2 2 2 2 2 2 2 2 2 2 2 3 2 2 3 3 2 2 2 2 2 1 2 3
0 0 0 0 0 0 1 1 1 0 0 1 1 1 1 1 1 2 2 2 2 2 2 2 3 3 2 3 3 2 3 3 3 3 3 2 2 2 2 2 3 3 4
1 1 1 1 1 1 1 1 1 1 1 1 1 1 1 2 1 1 2 2 2 2 2 2 3 3 3 3 3 2 2 3 3 3 3 3 2 2 2 3 3 3 4
1 1 1 1 1 1 1 1 1 1 1 2 2 1 2 2 2 2 2 2 2 2 3 3 3 3 3 3 3 3 3 4 3 3 4 4 3 2 2 2 2 3 3
1 1 1 1 1 1 2 2 2 2 2 2 2 2 2 2 2 2 3 2 2 2 3 3 3 4 4 4 4 4 4 4 4 4 4 4 3 4 3 3 3 4 4
1 1 1 1 2 2 2 2 3 3 3 2 2 2 2 2 2 3 3 2 2 3 3 3 3 4 4 4 5 5 5 5 5 5 5 5 4 5 4 4 4 3 4
2 2 2 2 3 3 3 3 3 3 2 2 2 2 3 3 3 3 3 3 3 3 3 3 3 4 4 5 5 5 5 5 5 5 5 5 5 5 5 5 5 4 4
3 3 3 3 3 3 3 3 3 3 2 2 3 3 3 3 3 3 3 3 2 3 3 3 4 4 4 4 4 5 5 5 5 5 5 5 6 7 5 4 4 4 4
4 4 4 4 4 4 4 3 3 3 2 3 4 4 3 3 3 3 3 2 2 2 3 3 4 4 4 7 8 5 5 5 5 5 4 5 6 7 8 8 7 6 5
5 5 4 4 4 4 4 4 4 3 3 4 4 4 3 4 4 3 3 3 3 3 3 4 4 4 6 9 9 8 5 5 5 5 4 4 5 6 5 7 8 8 9
5 5 4 5 4 4 4 4 3 3 4 4 4 4 4 4 4 3 4 3 3 3 3 4 4 4 6 9 8 7 4 4 5 5 5 5 5 5 5 4 5 5 6
5 4 4 4 4 4 4 3 4 3 4 5 5 5 4 4 4 4 4 3 3 4 4 4 4 5 6 9 9 6 3 4 5 5 5 5 5 7 6 4 4 4 4
3 3 3 3 4 4 3 3 4 4 5 5 5 5 4 4 5 5 4 3 3 4 4 4 4 5 6 8 9 7 3 4 4 4 4 7 7 8 6 4 4 5 4
4 3 3 3 4 3 2 3 4 5 5 5 4 4 4 4 4 3 3 3 3 3 4 5 5 5 6 8 9 8 3 3 4 3 3 4 8 8 7 6 4 5 3
3 3 3 4 4 3 2 4 5 5 4 3 4 4 4 3 2 3 3 3 3 4 4 4 5 4 5 7 8 9 7 5 4 4 3 4 8 8 7 5 4 4 2
3 3 3 4 4 3 2 4 5 4 3 3 4 4 3 3 2 3 3 3 3 3 4 4 4 4 3 5 9 8 8 7 4 3 5 6 7 5 4 4 4 2 1
3 3 3 4 5 4 3 4 4 3 3 3 4 3 2 2 2 2 3 3 4 4 4 4 4 4 3 3 3 3 3 4 3 2 3 4 4 2 3 2 1 1 2
3 2 3 4 5 5 4 4 3 2 3 3 3 3 2 2 2 2 3 4 4 4 4 4 3 4 4 5 7 4 3 2 2 1 0 1 1 1 1 1 1 1 1
3 3 3 4 5 5 5 4 3 2 2 3 2 2 2 2 2 2 3 4 5 6 7 7 6 5 7 7 7 6 5 4 2 1 1 2 2 2 2 2 2 2 2
Wind_Direction
274 293 283 252 219 153 142 141 104 96 100 115 136 155 134 108 90 76 55 85 84 109 120 105 129 138 149 161 138 71 87 47 58 63 350 326 284 242 236 224 204 220 228
294 293 281 209 188 176 171 158 146 146 147 162 166 170 142 122 105 50 39 35 64 92 130 112 128 122 140 126 132 91 99 69 109 113 81 333 320 287 247 222 208 227 233
241 248 229 197 186 179 186 174 164 147 146 123 101 73 78 75 51 28 20 4 4 93 78 117 173 152 145 186 193 164 147 176 267 121 138 157 238 296 296 247 231 230 231
244 237 220 208 203 207 195 168 151 132 139 136 133 125 135 153 185 188 243 337 346 339 44 216 207 190 188 200 220 182 171 157 195 274 271 183 173 185 296 302 272 254 243
214 216 211 220 212 186 175 172 143 129 136 143 154 160 170 182 166 138 174 238 318 328 344 325 274 228 215 210 208 210 198 186 188 192 185 203 283 183 196 273 301 306 265
227 238 16 43 27 40 69 112 148 145 147 153 168 184 188 180 165 176 200 230 246 275 300 297 273 257 240 227 218 213 217 216 200 203 195 181 191 205 203 235 271 281 279
172 101 60 59 45 41 40 46 102 110 133 148 192 221 210 196 198 205 209 221 232 259 262 267 262 262 253 237 221 212 229 227 218 216 219 216 224 211 210 230 261 276 284
133 173 216 184 181 25 39 50 56 40 38 356 253 259 226 209 216 224 223 227 233 238 246 251 255 259 254 246 229 225 226 230 236 244 235 229 230 222 220 217 230 275 279
138 236 280 254 226 260 263 235 234 316 336 313 306 291 270 239 234 234 235 237 237 237 235 244 246 249 246 242 228 226 233 228 225 236 243 247 240 232 236 228 223 227 259
337 325 302 282 272 253 265 276 259 256 285 293 287 301 304 292 260 237 245 249 252 248 242 247 248 247 244 242 235 232 234 232 231 224 227 243 246 238 238 236 237 233 242
279 279 286 286 288 303 292 285 287 292 290 283 283 291 288 286 276 259 251 251 254 248 240 241 247 249 247 239 232 234 225 227 238 237 232 241 246 249 247 241 236 238 241
278 266 275 300 306 293 284 279 279 271 265 266 268 265 269 271 268 270 266 259 259 256 250 247 249 255 251 241 234 236 232 227 232 234 235 244 241 244 242 238 239 239 238
295 293 289 287 279 272 269 265 264 263 263 257 261 273 277 272 264 264 269 265 263 271 270 256 255 260 256 245 236 233 230 230 234 233 233 240 233 239 238 239 241 244 248
294 291 285 279 280 279 276 271 267 260 261 262 260 261 263 262 260 259 261 263 260 259 265 268 260 260 259 250 240 235 231 230 234 234 236 239 233 234 232 235 236 239 245
302 295 290 286 287 288 284 274 272 271 266 260 259 260 262 263 260 258 259 259 251 258 263 268 269 265 261 253 245 237 235 232 236 239 241 245 251 252 245 246 237 233 238
295 294 289 288 284 278 277 277 272 268 261 256 259 262 255 256 257 256 256 255 256 260 263 265 271 270 268 274 265 252 233 232 237 243 246 251 250 257 261 264 260 249 240
285 283 281 277 276 273 268 266 265 269 260 257 259 259 251 252 256 258 251 252 253 256 259 262 266 270 274 283 275 264 243 234 239 243 245 253 255 256 252 256 261 256 255
281 283 283 285 286 283 279 273 272 263 258 257 254 251 245 248 255 248 242 247 252 255 256 259 260 268 276 284 279 272 247 239 240 239 238 245 249 249 252 251 256 254 253
271 274 275 278 281 279 275 275 269 263 259 257 250 247 243 246 252 249 246 246 250 256 256 260 258 265 278 284 278 272 242 246 247 243 241 246 246 257 262 252 255 266 274
285 287 297 296 284 280 282 274 269 261 258 260 257 251 245 242 245 245 245 249 252 256 258 263 259 259 269 280 277 268 242 251 257 251 248 256 260 260 257 244 241 253 262
289 289 295 289 280 282 280 273 272 263 267 274 273 261 251 246 241 243 243 244 254 260 261 266 267 262 268 277 271 265 245 244 256 256 252 255 268 268 267 264 248 255 263
296 297 298 295 294 286 268 274 271 275 286 285 276 262 258 254 242 237 244 241 242 251 258 265 272 266 269 277 269 266 267 264 248 251 251 260 271 274 275 272 270 271 271
286 292 290 299 305 297 266 268 283 294 295 286 277 268 265 262 250 239 248 249 242 249 261 264 271 278 270 271 274 270 272 275 267 254 266 275 276 279 276 281 282 277 245
287 296 304 304 305 305 293 272 286 292 285 279 279 276 264 269 272 260 249 248 244 248 258 266 273 283 282 274 271 260 258 269 279 275 268 275 278 288 292 280 286 281 247
291 291 291 291 296 303 302 295 287 283 278 276 274 278 272 265 269 274 267 264 250 248 259 257 256 266 270 276 284 285 265 250 247 259 255 250 251 267 266 283 277 267 264
282 288 289 289 296 304 304 304 298 277 267 277 277 277 279 278 278 283 302 292 287 285 281 280 277 275 278 289 288 287 283 282 276 267 218 234 236 243 248 252 259 261 254